GW0575 Weather Reports


time (UTC)temp
C
wind
direction
speed
KPH
gust
KPH
rain 1hr
cm
rain 24hr
cm
rain mn
cm
humidity
%
barometer
mb
20260505063537 9 152 3.2 4.8 0.00 0.00 0.00 90 1011.4
20260505062517 9 181 0.0 3.2 0.00 0.00 0.00 89 1011.4
20260505061517 9 170 1.6 4.8 0.00 0.00 0.00 88 1011.4
20260505060538 9 153 4.8 6.4 0.00 0.00 0.00 88 1011.4
20260505055517 10 185 1.6 3.2 0.00 0.00 0.00 87 1011.5
20260505054518 10 154 1.6 3.2 0.00 0.00 0.00 86 1011.5
20260505053519 10 188 1.6 3.2 0.00 0.00 0.00 86 1011.5
20260505052518 10 174 3.2 3.2 0.00 0.00 0.00 85 1011.4
20260505051518 10 179 3.2 6.4 0.00 0.00 0.00 85 1011.4
20260505050519 10 147 3.2 6.4 0.00 0.00 0.00 84 1011.5
20260505041559 10 182 3.2 4.8 0.00 0.00 0.00 80 1011.8
20260505040539 10 168 3.2 6.4 0.00 0.00 0.00 80 1011.6
20260505035517 10 152 4.8 8.0 0.00 0.00 0.00 79 1011.7
20260505034517 11 175 3.2 4.8 0.00 0.00 0.00 79 1011.6
20260505033520 11 175 3.2 4.8 0.00 0.00 0.00 78 1011.6
20260505032521 11 152 3.2 4.8 0.00 0.00 0.00 76 1011.6
20260505031518 11 159 4.8 8.0 0.00 0.00 0.00 75 1011.6
20260505030517 11 179 3.2 6.4 0.00 0.00 0.00 75 1011.8
20260505025618 11 168 3.2 6.4 0.00 0.00 0.00 74 1011.8
20260505024518 11 162 4.8 8.0 0.00 0.00 0.00 73 1011.7
20260505023518 11 190 8.0 14.5 0.00 0.00 0.00 74 1011.7
20260505022538 11 195 6.4 11.3 0.00 0.00 0.00 73 1011.7
20260505021519 12 194 8.0 16.1 0.00 0.00 0.00 72 1011.5
20260505020518 12 201 6.4 11.3 0.00 0.00 0.00 71 1011.7
20260505015516 12 180 3.2 8.0 0.00 0.00 0.00 71 1011.6
20260505014519 12 188 4.8 9.7 0.00 0.00 0.00 70 1011.6
20260505013519 12 204 6.4 9.7 0.00 0.00 0.00 69 1011.5
20260505012519 12 184 8.0 11.3 0.00 0.00 0.00 68 1011.5
20260505011517 13 179 4.8 9.7 0.00 0.00 0.00 67 1011.3
20260505010536 13 187 6.4 9.7 0.00 0.00 0.00 66 1011.1
20260505005520 13 182 6.4 16.1 0.00 0.00 0.00 64 1011.0
20260505004520 13 190 3.2 8.0 0.00 0.00 0.00 62 1010.8
20260505003520 13 193 4.8 8.0 0.00 0.00 0.00 61 1010.6
20260505002617 13 174 9.7 14.5 0.00 0.00 0.00 59 1010.3
20260505001517 13 174 4.8 8.0 0.00 0.00 0.00 58 1010.3
20260505000518 14 188 6.4 12.9 0.00 0.00 0.00 57 1010.1
20260504235540 14 177 4.8 11.3 0.00 0.00 0.00 56 1009.8
20260504234518 15 192 6.4 11.3 0.00 0.00 0.00 55 1009.7
20260504233518 15 188 6.4 11.3 0.00 0.00 0.00 53 1009.6
20260504232539 15 203 9.7 16.1 0.00 0.00 0.00 51 1009.4
20260504231518 16 200 9.7 12.9 0.00 0.00 0.00 49 1009.1
20260504230538 16 173 8.0 14.5 0.00 0.00 0.00 48 1008.8
20260504225518 17 176 8.0 14.5 0.00 0.00 0.00 47 1008.6
20260504224518 17 164 12.9 17.7 0.00 0.00 0.00 46 1008.3
20260504223519 17 171 9.7 14.5 0.00 0.00 0.00 46 1008.2
20260504222600 17 185 9.7 19.3 0.00 0.00 0.00 46 1008.1
20260504221516 17 187 8.0 14.5 0.00 0.00 0.00 46 1008.0
20260504220536 17 187 9.7 17.7 0.00 0.00 0.00 46 1007.9
20260504215517 17 189 12.9 17.7 0.00 0.00 0.00 46 1007.7
20260504214537 18 174 12.9 22.5 0.00 0.00 0.00 46 1007.8
20260504213558 18 183 4.8 8.0 0.00 0.00 0.00 46 1007.5
20260504212517 18 168 9.7 12.9 0.00 0.00 0.00 45 1007.4
20260504211517 18 212 8.0 16.1 0.00 0.00 0.00 44 1007.3
20260504210540 18 179 8.0 14.5 0.00 0.00 0.00 41 1007.0
20260504205518 19 193 14.5 22.5 0.00 0.00 0.00 41 1007.0
20260504204518 19 202 8.0 12.9 0.00 0.00 0.00 40 1006.8
20260504203518 19 188 11.3 19.3 0.00 0.00 0.00 40 1006.8
20260504202518 19 211 9.7 14.5 0.00 0.00 0.00 38 1006.7
20260504201518 19 191 12.9 16.1 0.00 0.00 0.00 39 1006.8
20260504200518 20 173 8.0 11.3 0.00 0.00 0.00 37 1006.6
20260504195518 20 183 11.3 19.3 0.00 0.00 0.00 36 1006.4
20260504194519 20 209 9.7 12.9 0.00 0.00 0.00 34 1006.6
20260504193520 20 181 8.0 12.9 0.00 0.00 0.00 34 1006.4
20260504192539 20 205 11.3 17.7 0.00 0.00 0.00 32 1006.2
20260504191516 20 204 8.0 16.1 0.00 0.00 0.00 32 1006.1
20260504190519 20 202 8.0 12.9 0.00 0.00 0.00 33 1006.2
20260504185519 20 241 11.3 24.1 0.00 0.00 0.00 32 1006.4
20260504184520 21 229 8.0 12.9 0.00 0.00 0.00 32 1006.2
20260504183521 20 192 8.0 14.5 0.00 0.00 0.00 33 1006.4
20260504182537 20 202 9.7 16.1 0.00 0.00 0.00 32 1006.6
20260504181517 20 265 6.4 14.5 0.00 0.00 0.00 32 1006.3
20260504180517 20 245 11.3 17.7 0.00 0.00 0.00 33 1006.6
20260504175517 20 208 8.0 11.3 0.00 0.00 0.00 32 1006.4
20260504174518 20 220 11.3 24.1 0.00 0.00 0.00 32 1006.4
20260504173518 20 245 14.5 20.9 0.00 0.00 0.00 31 1006.4
20260504172538 20 181 4.8 12.9 0.00 0.00 0.00 34 1006.1
20260504171518 20 200 11.3 17.7 0.00 0.00 0.00 33 1006.5
20260504170519 19 190 8.0 14.5 0.00 0.00 0.00 33 1006.5
20260504150537 18 264 8.0 12.9 0.00 0.00 0.00 37 1007.7
20260504140538 17 189 3.2 8.0 0.00 0.00 0.00 38 1008.1
20260504130516 15 251 6.4 11.3 0.00 0.00 0.00 43 1008.7
20260504110518 6 235 0.0 1.6 0.00 0.00 0.00 63 1010.9
20260504100519 5 209 0.0 3.2 0.00 0.00 0.00 66 1011.1
20260504081538 5 298 0.0 1.6 0.00 0.00 0.00 68 1011.2
20260504080538 5 166 3.2 4.8 0.00 0.00 0.00 68 1011.0